Regional Weather Roundup
Issued by NWS Newport/Morehead, NC

Current Version | Previous Version | Graphics & Text | Print | Product List | Glossary On
Versions: 1 2 3 4 5 6 7 8 9 10 11 12 13 14 15 16 17 18 19 20 21 22 23 24 25 26 27 28 29 30 31 32 33 34 35 36 37 38 39 40 41 42 43 44 45 46 47 48 49 50
000 ASUS42 KMHX 191814 RWRMHX WEATHER ROUNDUP FOR EASTERN NORTH CAROLINA NATIONAL WEATHER SERVICE NEWPORT/MOREHEAD CITY NC 200 PM EDT SAT AUG 19 2017 NOTE: "FAIR" INDICATES FEW OR NO CLOUDS BELOW 12,000 FEET WITH NO SIGNIFICANT WEATHER AND/OR OBSTRUCTIONS TO VISIBILITY NCZ015>017-031-032-045>047-102-103-191900- NORTH COAST CITY SKY/WX TMP DP RH WIND PRES REMARKS EDENTON PTSUNNY 89 76 64 CALM 29.93F HX 100 ELIZABETH CITY MOSUNNY 90 75 61 W7 29.91F HX 100 KITTY HAWK CLEAR 87 72 60 CALM 29.91F MANTEO SUNNY 86 75 68 CALM 29.93S $$ NCZ045>047-081-094-103-104-191900- CENTRAL COAST CITY SKY/WX TMP DP RH WIND PRES REMARKS FRISCO CLOUDY 89 81 77 SW9 29.94S HX 108 $$ NCZ095-097-098-100-101-191900- SOUTHERN COAST CITY SKY/WX TMP DP RH WIND PRES REMARKS BEAUFORT CLOUDY 88 83 85 SW16 29.94R HX 109 CEDAR ISLAND NOT AVBL JACKSONVILLE MOSUNNY 87 81 82 SE10 29.89F THUNDER HX 104 PINEY ISLAND HVY RAIN N/A N/A N/A S8 29.96R WILMINGTON CLOUDY 83 76 79 W9 29.92F THUNDER $$ NCZ011>013-027>030-043-044-078>080-089-090>093-098-191900- COASTAL PLAIN CITY SKY/WX TMP DP RH WIND PRES REMARKS AHOSKIE N/A 85 73 66 CALM 29.93F CLINTON MOSUNNY 91 73 55 NW6 29.93F ELIZABETHTOWN NOT AVBL GOLDSBORO MOSUNNY 91 70 49 VRB3 29.92F GREENVILLE MOSUNNY 90 72 55 CALM 29.95S HAVELOCK PTSUNNY 84 76 76 SE10 29.94R THUNDER KENANSVILLE PTSUNNY 91 73 55 N7 29.92F HX 100 KINSTON NOT AVBL NEW BERN MOSUNNY 89 76 65 W6 29.93F HX 100 RICHLANDS MOSUNNY 92 77 61 NW7 29.91F HX 105 ROCKY MOUNT MOSUNNY 90 69 50 NW7 29.94F WASHINGTON SUNNY 90 71 53 W6 29.93S WHITEVILLE CLOUDY 85 75 71 CALM 29.92S $$ AMZ130-135-150-152-154-156-158-170-250-252-270-ANZ085-086-088-633-658-670-191900- MARINE OBSERVATIONS STATION/POSITION TIME TEMP WIND PRES WAVE SWELL AIR SEA DIR/SP/G HT/PER HT/PER (UTC) (F) (DEG/KT/KT) (MB) (FT/S) (FT/S) CHESAPEAKE LIGHT NOT AVBL 64 E VA BEACH 1750 78 78 290/ 6/ 6 1013.6 3/ 6 3/ 6 DUCK 1748 87 74 110/ 4/ 5 1013.0 2 E DUCK 1730 80 N/A 2/ 7 OREGON INLET 1736 87 84 210/ 2/ 3 1013.3 13E OREGON INLT 1748 79 N/A 3/ 6 3/ 6 HATTERAS CG 1748 85 83 280/ 5/ 6 1013.8 DIAMOND BUOY 1750 84 84 240/ 14/ 16 1013.7 4/ 6 2/ 7 CAPE LOOKOUT 1800 86 220/ 13/ 18 1013.3 BEAUFORT LAB 1748 87 83 220/ 7/ 12 1013.1 30 SE NEW RVR IN 1708 83 84 220/ 14/ 17 1014.2 30 SE NEW RVR IN 1743 84 N/A 4/ 6 27 SE WRIGHTSVLE 1708 84 84 220/ 12/ 17 1014.2 5 SE WRIGHTSVLE 1708 84 83 200/ 12/ 17 1013.9 225 S CAPE HAT 1750 84 85 200/ 12/ 14 1017.0 4/ 6 3/ 6 41 SE CHARLESTON 1750 84 85 210/ 14/ 16 1014.4 3/ 5 2/ 8 $$

USA.gov is the U.S. government's official web portal to all federal, state and local government web resources and services.